CW0179 Weather Reports


Display with metric or nautical units.
time (UTC)temp
F
wind
direction
speed
MPH
gust
MPH
rain 1hr
in
rain 24hr
in
rain mn
in
humidity
%
barometer
mb
20260505123929 61 122 0.0 1.0 0.00 0.00 0.00 85 1010.1
20260505122937 58 126 0.0 0.0 0.00 0.00 0.00 89 1010.2
20260505121929 57 125 0.0 0.0 0.00 0.00 0.00 90 1010.5
20260505120924 57 189 0.0 0.0 0.00 0.00 0.00 92 1010.4
20260505115922 56 188 0.0 0.0 0.00 0.00 0.00 94 1010.4
20260505114944 55 189 0.0 0.0 0.00 0.00 0.00 98 1010.6
20260505113955 54 188 0.0 0.0 0.00 0.00 0.00 98 1010.5
20260505112937 52 188 0.0 0.0 0.00 0.00 0.00 99 1010.6
20260505111946 50 189 0.0 0.0 0.00 0.00 0.00 99 1010.6
20260505110915 48 189 0.0 0.0 0.00 0.00 0.00 98 1010.7
20260505101708 44 188 0.0 0.0 0.00 0.00 0.00 98 1009.8
20260505100653 44 188 0.0 0.0 0.00 0.00 0.00 98 1009.8
20260505095705 44 188 0.0 0.0 0.00 0.00 0.00 98 1009.7
20260505093549 44 188 0.0 0.0 0.00 0.00 0.00 97 1009.6
20260505092542 44 188 0.0 0.0 0.00 0.00 0.00 97 1009.6
20260505091555 44 188 0.0 0.0 0.00 0.00 0.00 97 1009.6
20260505090607 44 188 0.0 0.0 0.00 0.00 0.00 97 1009.6
20260505085544 44 188 0.0 0.0 0.00 0.00 0.00 97 1009.5
20260505084531 44 188 0.0 0.0 0.00 0.00 0.00 97 1009.5
20260505083534 44 188 0.0 0.0 0.00 0.00 0.00 97 1009.6
20260505082545 44 188 0.0 0.0 0.00 0.00 0.00 97 1009.6
20260505081530 44 188 0.0 0.0 0.00 0.00 0.00 97 1009.7
20260505075443 44 188 0.0 0.0 0.00 0.00 0.00 97 1009.6
20260505073244 45 189 0.0 0.0 0.00 0.00 0.00 97 1009.4
20260505072216 45 189 0.0 0.0 0.00 0.00 0.00 97 1009.4
20260505071239 45 188 0.0 0.0 0.00 0.00 0.00 96 1009.5
20260505070229 45 188 0.0 0.0 0.00 0.00 0.00 96 1009.5
20260505065212 45 188 0.0 0.0 0.00 0.00 0.00 96 1009.6
20260505064229 45 188 0.0 0.0 0.00 0.00 0.00 96 1009.5
20260505063225 45 188 0.0 0.0 0.00 0.00 0.00 96 1009.6
20260505062214 45 188 0.0 0.0 0.00 0.00 0.00 96 1009.7
20260505060031 46 188 0.0 0.0 0.00 0.00 0.00 96 1009.8
20260505055035 46 188 0.0 0.0 0.00 0.00 0.00 96 1009.8
20260505054013 46 188 0.0 0.0 0.00 0.00 0.00 96 1009.9
20260505052950 46 188 0.0 0.0 0.00 0.00 0.00 96 1010.0
20260505051947 46 188 0.0 0.0 0.00 0.00 0.00 95 1010.0
20260505051001 46 188 0.0 0.0 0.00 0.00 0.00 95 1009.9
20260505040853 48 188 0.0 0.0 0.00 0.00 0.00 93 1010.3
20260505035836 48 188 0.0 0.0 0.00 0.00 0.00 93 1010.3
20260505034825 48 188 0.0 0.0 0.00 0.00 0.00 93 1010.4
20260505033826 49 188 0.0 0.0 0.00 0.00 0.00 92 1010.2
20260505032830 49 188 0.0 0.0 0.00 0.00 0.00 92 1010.3
20260505031833 49 189 0.0 0.0 0.00 0.00 0.00 92 1010.3
20260505025710 50 188 0.0 0.0 0.00 0.00 0.00 90 1010.3
20260505024719 50 188 0.0 0.0 0.00 0.00 0.00 89 1010.4
20260505023734 51 188 0.0 0.0 0.00 0.00 0.00 88 1010.4
20260505022757 51 189 0.0 0.0 0.00 0.00 0.00 87 1010.4
20260505015522 53 188 0.0 0.0 0.00 0.00 0.00 82 1010.4
20260505014524 54 188 0.0 0.0 0.00 0.00 0.00 81 1010.3
20260505013519 55 188 0.0 0.0 0.00 0.00 0.00 79 1010.3
20260505011332 56 119 0.0 0.0 0.00 0.00 0.00 76 1010.1
20260505010346 56 133 0.0 0.0 0.00 0.00 0.00 77 1009.9
20260505005402 57 165 0.0 0.0 0.00 0.00 0.00 75 1009.8
20260505004410 57 153 0.0 0.0 0.00 0.00 0.00 75 1009.7
20260505003415 57 72 0.0 0.0 0.00 0.00 0.00 74 1009.5
20260505002414 57 167 0.0 0.0 0.00 0.00 0.00 74 1009.4
20260505001348 58 101 0.0 0.0 0.00 0.00 0.00 71 1009.3
20260505000317 59 155 0.0 1.0 0.00 0.00 0.00 70 1009.1
20260504235300 59 51 0.0 3.0 0.00 0.00 0.00 68 1009.0
20260504234238 60 98 0.0 2.0 0.00 0.00 0.00 67 1008.9
20260504233232 61 66 0.0 3.0 0.00 0.00 0.00 65 1008.6
20260504232209 61 96 1.0 4.0 0.00 0.00 0.00 63 1008.6
20260504231201 62 44 1.0 5.0 0.00 0.00 0.00 61 1008.6
20260504230210 63 1 1.0 7.0 0.00 0.00 0.00 59 1008.4
20260504225200 64 79 1.0 7.0 0.00 0.00 0.00 57 1008.3
20260504224145 65 39 1.0 5.0 0.00 0.00 0.00 56 1008.3
20260504223140 65 58 1.0 5.0 0.00 0.00 0.00 55 1008.3
20260504222109 66 336 1.0 4.0 0.00 0.00 0.00 55 1008.4
20260504221100 66 39 1.0 6.0 0.00 0.00 0.00 53 1008.5
20260504220105 67 97 2.0 8.0 0.00 0.00 0.00 52 1008.5
20260504215109 67 72 1.0 8.0 0.00 0.00 0.00 54 1008.5
20260504214122 68 98 2.0 5.0 0.00 0.00 0.00 51 1008.5
20260504213136 69 347 1.0 5.0 0.00 0.00 0.00 51 1008.5
20260504211026 69 60 1.0 7.0 0.00 0.00 0.00 49 1008.5
20260504205957 69 74 1.0 7.0 0.00 0.00 0.00 47 1008.4
20260504203833 69 55 3.0 9.0 0.00 0.00 0.00 46 1008.4
20260504202759 70 50 2.0 9.0 0.00 0.00 0.00 47 1008.5
20260504200613 71 37 2.0 6.0 0.00 0.00 0.00 45 1008.5
20260504195619 72 70 3.0 7.0 0.00 0.00 0.00 40 1008.4
20260504193452 72 30 2.0 7.0 0.00 0.00 0.00 37 1008.6
20260504192424 72 77 2.0 7.0 0.00 0.00 0.00 38 1008.6
20260504191403 72 73 2.0 7.0 0.00 0.00 0.00 40 1008.8
20260504190414 72 70 2.0 6.0 0.00 0.00 0.00 39 1008.9
20260504185439 72 60 3.0 7.0 0.00 0.00 0.00 39 1009.0
20260504184417 72 59 2.0 8.0 0.00 0.00 0.00 38 1009.0
20260504183358 72 70 2.0 8.0 0.00 0.00 0.00 37 1009.2
20260504182339 71 56 2.0 7.0 0.00 0.00 0.00 39 1009.5
20260504181347 72 72 1.0 6.0 0.00 0.00 0.00 38 1009.5
20260504180317 71 150 1.0 8.0 0.00 0.00 0.00 42 1009.6
20260504175329 71 210 1.0 8.0 0.00 0.00 0.00 38 1009.9
20260504174307 71 27 2.0 7.0 0.00 0.00 0.00 38 1009.7
20260504173238 70 65 1.0 5.0 0.00 0.00 0.00 40 1009.9
20260504172241 70 76 3.0 7.0 0.00 0.00 0.00 38 1010.1
20260504171219 70 59 1.0 7.0 0.00 0.00 0.00 39 1010.1
20260504170219 70 93 2.0 7.0 0.00 0.00 0.00 38 1010.1
20260504160149 68 72 2.0 8.0 0.00 0.00 0.00 40 1011.0
20260504151033 67 72 2.0 7.0 0.00 0.00 0.00 45 1011.5
20260504140955 64 158 1.0 6.0 0.00 0.00 0.00 47 1012.1